Weather in Akcaabat

Turkey     41°01′19″N   39°34′20″E
temp.,
°C
wind,
m/s
gust,
m/s
humid.,
%
clouds,
%
prec.,
mm/h
press.,
hPa
HPBL,
m
29 november, mon
mon2900:00+14ssw576378 0.0 1015111
03:00+14ssw6765100 0.0 1015104
06:00+14ssw676413 0.0 101497
09:00+15ssw69595 0.0 1015135
12:00+20s35511 0.0 1014185
15:00+20s5551100 0.0 101298
18:00+17ssw78539 0.0 101195
21:00+18ssw7849100 0.0 101083
30 november, tue
tue3000:00+18ssw7848100 0.0 100890
03:00+18ssw7848100 0.0 100887
06:00+13nw4582100 0.0 1013269
09:00+12e3491100 0.1 1013383
12:00+13e568486 0.0 1009468
15:00+15ese68721 0.0 1002475
18:00+15sse35590 0.0 99981
21:00+15w912586 0.0 1002357
1 december, wed
wed100:00+10ssw1388100 0.1 1006245
03:00+10w61281100 7.9 10091299
06:00+8wnw5788100 4.6 1012928
09:00+6wnw5793100 10.0 1013964
12:00+6nw3490100 4.8 1015763
15:00+5se118980 6.5 1014319
18:00+5s118544 0.2 1015208
21:00+5s227842 0.2 1016100
2 december, thu
thu200:00+5ssw22735 0.0 1017112
03:00+4sw337212 0.0 101892
06:00+5sw33718 0.0 101990
09:00+6ssw22663 0.0 1021102
12:00+9ene22563 0.0 1021695
15:00+9e33612 0.0 1020445
18:00+6sse45700 0.0 1021201
21:00+6s34590 0.0 1020120
3 december, fri
fri300:00+6s34565 0.0 1019118
03:00+7ssw3352100 0.0 1018103
06:00+8ssw4452100 0.0 101867
09:00+9ssw34512 0.0 101869
12:00+13wnw12463 0.0 1017179
15:00+13s12555 0.0 1016115
18:00+9ssw4553100 0.0 101761
21:00+9ssw56495 0.0 101770